#timestamp,LO_Frequency,Hit,StdDev 
1632146415.1,286047003.9,N
1632146416.0,286047003.9,N
1632146435.8,286047004.2,N
1632146455.7,286047004.2,N
1632146475.5,286047004.2,N
1632146495.4,286047003.6,N
1632146515.2,286047003.5,N
1632146535.0,286047004.1,N
1632146535.9,286047004.1,N
1632146555.8,286047003.2,N
1632146575.6,286047004.0,N
1632146595.5,286047004.3,N
1632146615.3,286047004.0,N
1632146635.1,286047001.8,N
1632146655.9,286047004.2,N
1632146675.7,286047003.5,N
1632146695.5,286047004.2,N
1632146715.4,286047001.9,N
1632146735.2,286046999.7,N
1632146755.1,286047000.3,N
1632146756.0,286047000.3,N
1632146775.8,286046999.7,N
1632146795.6,286047000.4,N
1632146815.5,286047002.5,N
1632146835.3,286047002.0,N
1632146855.2,286047000.0,N
1632146875.9,286047000.9,N
1632146895.7,286046998.5,N
1632146915.6,286046998.6,N
1632146935.4,286047000.8,N
1632146955.2,286046999.8,N
1632146975.1,286047000.4,N
1632146976.0,286047000.4,N
1632146995.8,286046999.8,N
1632147015.7,286046998.1,N
1632147035.5,286047000.6,N
1632147055.3,286047000.6,N
1632147075.2,286047002.8,N
1632147095.0,286047002.4,N
1632147095.9,286047002.4,N
1632147115.8,286047001.6,N
1632147135.6,286047001.6,N
1632147155.4,286047001.6,N
1632147175.3,286047004.4,N
1632147195.1,286047003.9,N
1632147215.8,286047002.6,N
1632147235.7,286047001.9,N
1632147255.5,286047002.3,N
1632147275.4,286046999.7,N
1632147295.2,286047000.2,N
1632147315.0,286047001.1,N
1632147315.9,286047001.1,N
1632147335.8,286046996.5,N
1632147355.6,286046998.5,N
1632147375.5,286046998.9,N
1632147395.3,286046998.3,N
1632147415.1,286047001.1,N
1632147435.9,286046999.2,N
1632147455.7,286046999.6,N
1632147475.5,286046996.9,N
1632147495.4,286046999.1,N
1632147515.2,286046998.3,N
1632147535.1,286047000.5,N
1632147536.0,286047000.5,N
1632147555.8,286047000.1,N
1632147575.6,286047000.2,N
1632147595.5,286047002.6,N
1632147615.3,286047002.1,N
1632147635.2,286047002.5,N
1632147655.9,286047000.9,N
1632147675.7,286047002.0,N
1632147695.6,286047001.8,N
1632147715.4,286047001.4,N
1632147735.2,286047002.2,N
1632147755.1,286046999.8,N
1632147756.0,286046999.8,N
1632147775.8,286047000.4,N
1632147795.7,286047002.3,N
1632147815.5,286047002.1,N
1632147835.3,286047001.9,N
1632147855.2,286047000.6,N
1632147875.0,286046996.5,N
1632147875.9,286046996.5,N
1632147895.8,286046996.7,N
1632147915.6,286046997.5,N
1632147935.4,286046995.1,N
1632147955.3,286046995.3,N
1632147975.1,286046997.6,N
1632147995.9,286046996.7,N
1632148015.7,286046997.8,N
1632148035.5,286046999.6,N
1632148055.4,286047000.9,N
1632148075.2,286047002.8,N
1632148095.1,286047000.3,N
1632148096.0,286047000.3,N
1632148115.8,286047000.3,N
1632148135.6,286047001.2,N
1632148155.5,286046999.9,N
1632148175.3,286047000.3,N
1632148195.1,286047000.6,N
1632148215.9,286047000.7,N
1632148235.7,286046998.2,N
1632148255.6,286046996.7,N
1632148275.4,286046998.1,N
1632148295.2,286046999.9,N
1632148315.1,286046999.8,N
1632148316.0,286046999.8,N
1632148335.8,286047002.8,N
1632148355.7,286046999.8,N
1632148375.5,286047001.4,N
1632148395.3,286047004.0,N
1632148415.2,286047001.3,N
1632148435.9,286047004.1,N
1632148455.7,286047001.4,N
1632148475.6,286047001.2,N
1632148495.4,286046998.8,N
1632148515.3,286046999.4,N
1632148535.1,286046996.8,N
1632148536.0,286046996.8,N
1632148555.8,286046997.3,N
1632148575.7,286046996.6,N
1632148595.5,286046999.4,N
1632148615.3,286046998.2,N
1632148635.2,286047000.5,N
1632148655.0,286047000.6,N
1632148655.9,286047000.6,N
1632148675.8,286047000.8,N
1632148695.6,286047000.1,N
1632148715.4,286047002.3,N
1632148735.3,286047002.5,N
1632148755.1,286047002.6,N
1632148775.9,286047000.2,N
1632148795.7,286047000.1,N
1632148815.5,286047000.1,N
1632148835.4,286047000.2,N
1632148855.2,286047000.4,N
1632148875.1,286046999.8,N
1632148876.0,286046999.8,N
1632148895.8,286047002.4,N
1632148915.6,286046999.7,N
1632148935.5,286047000.0,N
1632148955.3,286047000.3,N
1632148975.1,286047000.0,N
1632148995.9,286047000.2,N
1632149015.7,286046999.7,N
1632149035.6,286047000.4,N
1632149055.4,286047000.8,N
1632149075.2,286046998.7,N
1632149095.1,286046996.9,N
1632149096.0,286046996.9,N
1632149115.8,286046999.2,N
1632149135.6,286046996.6,N
1632149155.5,286046996.6,N
1632149175.3,286046997.4,N
1632149195.2,286046999.6,N
1632149215.9,286046996.7,N
1632149235.7,286046996.7,N
1632149255.6,286046996.8,N
1632149275.4,286046999.1,N
1632149295.3,286046997.0,N
1632149315.1,286046999.0,N
1632149316.0,286046999.0,N
1632149335.8,286046998.2,N
1632149355.7,286046999.0,N
1632149375.5,286046999.0,N
1632149395.3,286046998.3,N
1632149415.2,286046999.5,N
1632149435.0,286046996.5,N
1632149435.9,286046996.5,N
1632149455.8,286046997.1,N
1632149475.6,286046997.7,N
1632149495.4,286046996.7,N
1632149515.3,286046996.6,N
1632149535.1,286046996.5,N
1632149555.9,286046996.7,N
1632149575.7,286046996.6,N
1632149595.5,286046997.8,N
1632149615.4,286046996.8,N
1632149635.2,286046999.5,N
1632149655.0,286046997.8,N
1632149656.0,286046997.8,N
1632149675.8,286046997.3,N
1632149695.6,286046995.1,Y
1632149715.5,286046999.2,P
1632149735.3,286046996.8,P
1632149755.1,286046996.8,P
1632149775.9,286046997.0,Y
1632149795.7,286047000.6,P
1632149815.6,286047002.2,N
1632149835.4,286047002.4,N
1632149855.2,286047002.5,N
1632149875.1,286047002.6,N
1632149876.0,286047002.6,N
1632149895.8,286047000.0,N
1632149915.7,286047000.3,N
1632149935.5,286047002.7,N
1632149955.3,286047002.8,N
1632149975.2,286047002.2,N
1632149995.0,286047002.1,N
1632149995.9,286047002.1,N
